Regional Weather Roundup
Issued by NWS Charleston, SC

Current Version | Previous Version | Graphics & Text | Print | Product List | Glossary On
Versions: 1 2 3 4 5 6 7 8 9 10 11 12 13 14 15 16 17 18 19 20 21 22 23 24 25 26 27 28 29 30 31 32 33 34 35 36 37 38 39 40 41 42 43 44 45 46 47 48 49 50
000
ASUS42 KCHS 222225
RWRCHS

REGIONAL WEATHER ROUNDUP
NATIONAL WEATHER SERVICE CHARLESTON SC
600 PM EDT FRI AUG 22 2014

NOTE: "FAIR" INDICATES FEW OR NO CLOUDS BELOW 12,000 FEET WITH NO
SIGNIFICANT WEATHER AND/OR OBSTRUCTIONS TO VISIBILITY.

NOT ALL STATIONS ARE QUALITY CONTROLLED BY THE NATIONAL
WEATHER SERVICE. USE DATA WITH CAUTION...ESPECIALLY
DEWPOINT OBSERVATIONS.

SCZ027-030-031-034>040-042>050-222300-
...SOUTH CAROLINA...

CITY           SKY/WX    TMP DP  RH WIND       PRES   REMARKS
N CHARLESTON   MOSUNNY   97  70  41 SW7       29.94F HX 103
WATERFRONT PRK   N/A     91 N/A N/A S9          N/A
FORT JOHNSON   NOT AVBL
MOUNT PLEASANT FAIR      91  81  70 S9        29.93F HX 110
JOHNS ISLAND   CLEAR     91  79  66 S5        29.94F HX 107
PINOPOLIS        N/A     99  72  41 SE2       29.85F HX 107
MONCKS CORNER    N/A     95  81  63 CALM      29.93F HX 115
SUMMERVILLE    FAIR      97  73  46 SW3       29.94F HX 107
BEAUFORT MCAS  MOSUNNY   96  71  44 W8        29.94F HX 103
BEAUFORT ARPT  FAIR      90  79  70 S6        29.94S HX 105
HILTON HEAD IS MOSUNNY   90  81  74 SE5       29.97F HX 108
GEORGETOWN     NOT AVBL
WALTERBORO     CLEAR     99  61  28 W8        29.94F HX  99
ORANGEBURG     MOSUNNY   97  66  36 NE5       29.95S HX 100
BARNWELL       FAIR      99  66  34 W9        29.95S HX 102
AIKEN          FAIR      95  70  43 NW8       29.99F HX 101
MANNING        FAIR      97  70  41 W3        29.94S HX 103
KINGSTREE      NOT AVBL
COLUMBIA       MOSUNNY   98  64  32 SW6       29.94F HX 100
SUMTER         SUNNY     97  67  37 NW5       29.94S HX 100
FLORENCE       SUNNY     96  68  39 W5        29.93S HX 101
MYRTLE BEACH   MOSUNNY   91  73  55 S12       29.94S HX 100
N MYRTLE BEACH SUNNY     88  76  67 SW10      29.94F HX  99

$$

GAZ063-065-086>088-099>101-113>116-118-119-134-136>141-150-222300-
...GEORGIA...

CITY           SKY/WX    TMP DP  RH WIND       PRES   REMARKS
SAVANNAH ARPT  MOSUNNY   99  67  35 NW9       29.95F HX 103
HUNTER AAF     SUNNY     98  69  39 W7        29.93F HX 104
FORT STEWART   SUNNY     99  67  34 NW6       29.94F HX 103
STATESBORO     NOT AVBL
SYLVANIA       PTCLDY    97  74  47 NW9       29.96S HX 107
CLAXTON        FAIR      99  72  41 CALM      29.95S HX 107
THOMSON        MOSUNNY   97  76  50 W7        30.00F HX 110
AUGUSTA-BUSH   MOSUNNY   96  68  39 W8        29.94F HX 101
AUGUSTA-DANIEL MOSUNNY   99  66  33 VRB5      29.96F HX 103
SWAINSBORO     FAIR     100  70  37 NW6       29.97S HX 107
VIDALIA          N/A     91  72  52 CALM      29.98R HX  98
ALMA           SUNNY     97  69  40 NW3       29.97F HX 103
WAYCROSS       SUNNY    100  72  40 CALM      29.97S HX 109
JESUP            N/A     95  79  59 W3        29.97S HX 112
BRUNSWICK      SUNNY     95  73  49 SE6       29.97S HX 105
SAINT SIMONS   SUNNY     89  79  72 S7        29.97F HX 104

$$

SCZ027-028-034-036>038-045-046-048>050-GAZ119-141-222300-
...LAKE AND SUPPLEMENTAL COASTAL OBSERVATIONS...

STATION/POSITION TIME  TEMP    WIND        PRES    WAVE   SWELL
                       AIR SEA DIR/SP/G            HT/PER HT/PER/DIR
                 (UTC) (F)     (DEG/KT/KT) (MB)    (FT/S) (FT/S/D)
UPR LAKE MARION  NOT AVBL
WINYAH BAY       2200   91     190/ 12     1013.0F
LAKE MURRAY      2100   96     180/  4/  5 1013.5F
ACE BASIN NERRS  2200   93        CALM     1015.0S
FORT PULASKI     2200   90     160/  4/  7 1014.6F
SAPELO ISLAND    2200   93     140/  6     1015.0S

$$

ANZ835-935-AMZ111-154-330-350-352-354-374-450-454-472-222300-
...C-MAN AND BUOY OBSERVATIONS...

STATION/POSITION TIME  TEMP    WIND        PRES    WAVE   SWELL
                       AIR SEA DIR/SP/G            HT/PER HT/PER/DIR
                 (UTC) (F)     (DEG/KT/KT) (MB)    (FT/S) (FT/S/D)
FOLLY BEACH CMAN 2200   88     200/ 11/ 13 1014.3F
BUOY 41004       2200   86 86  200/ 10/ 12 1014.0F
BUOY 41008       2200   87 87  170/  8/ 10 1014.6F   1/ 9
5E ST. MARYS GA  2200      86                N/A     1/ 9
FRYING PAN BUOY  NOT AVBL
BUOY 41025       2200   83     280/ 10/ 12 1012.9F   2/ 8   2/ 50/ 8
CAPE LOOKOUT NC  2200   86     240/  9/ 11 1013.2F
BUOY 41002       2059   83 83  260/ 12/ 14 1015.6F   2/ 4   2/110/ 9
BUOY 41010       2200   85 87  190/  4/  6 1016.3F   2/ 7   2/120/ 7
BUOY 41012       NOT AVBL
ST AUGUSTINE FL  2200   83     170/  8/  9 1016.3F
CAPERS NEARSHORE 2100   88     200/ 14/ 17   N/A
FRIPP NEARSHORE  NOT AVBL


$$


USA.gov is the U.S. government's official web portal to all federal, state and local government web resources and services.